Location: Albany
(35.0170°S, 117.8920°E)
Time: 17:16:21
(UTC+08:00)

Explorer 11/Cluster Stage 4 - Pass Details

Date: 31 January 2021
Orbit: 467 x 1257 km, 28.8° (Epoch: 02 March)

Event Time Altitude Azimuth Distance (km) Brightness Sun altitude
Rises 07:24:52 0° 283° (WNW) 4,085 9.7 22.6°
Reaches altitude 10° 07:28:00 10° 287° (WNW) 3,040 9.1 23.2°
Maximum altitude 07:35:13 51° 0° (N) 1,250 7.9 24.7°
Drops below altitude 10° 07:41:09 10° 74° (ENE) 2,508 10.6 25.9°
Sets 07:43:31 0° 79° (E) 3,322 11.0 26.4°
